Tracking 29487 objects as of 11-Sep-2024
HD Live streaming from Space Station
objects crossing your sky now

FENGYUN 1C DEB

Track FENGYUN 1C DEB now!
10-day predictions


NORAD ID: 30553
Int'l Code: 1999-025AKT
Perigee: 700.8 km
Apogee: 744.8 km
Inclination: 99.2 °
Period: 99.1 minutes
Semi major axis: 7093 km
RCS: 0.027 m2 (small)
Launch date: May 10, 1999
Source: People's Republic of China (PRC)
Launch site: Taiyaun Space Center, China (TSC)

Note: This is SATELLITE DEBRIS
Your satellite tracking list
Your tracking list is empty




NASA's NSSDC Master Catalog

Two Line Element Set (TLE):
1 30553U 99025AKT 24254.07002697  .00035967  00000-0  86173-2 0  9996
2 30553  99.1567 293.8212 0030965 104.9947 255.4677 14.53062106917662
Source of the keplerian elements: AFSPC